Location: Kershaw
(34.5481°N, 80.5823°W)
Time: 17:16:21
(UTC+00:00)

Transit 2A - Pass Details

Date: 05 October 2022
Orbit: 598 x 959 km, 66.7° (Epoch: 06 December)

Event Time Altitude Azimuth Distance (km) Brightness Sun altitude
Rises 13:12:24 0° 329° (NNW) 3,021 8.6 21.6°
Reaches altitude 10° 13:14:38 10° 327° (NNW) 2,151 7.9 22.0°
Maximum altitude 13:19:28 64° 246° (WSW) 822 6.3 22.9°
Drops below altitude 10° 13:24:50 10° 166° (SSE) 2,375 9.2 23.9°
Sets 13:27:24 0° 163° (SSE) 3,362 9.9 24.4°
